Regional Weather Roundup
Issued by NWS Sioux Falls, SD

Home | Current Version | Previous Version | Text Only | Print | Product List | Glossary Off
Versions: 1 2 3 4 5 6 7 8 9 10 11 12 13 14 15 16 17 18 19 20 21 22 23 24 25 26 27 28 29 30 31 32 33 34 35 36 37 38 39 40 41 42 43 44 45 46 47 48 49 50

000
ASUS43 KFSD 292302
RWRFSD

WEATHER ROUNDUP FOR SE SOUTH DAKOTA/SW MINNESOTA/NW IOWA
NATIONAL WEATHER SERVICE SIOUX FALLS SD
600 PM CDT THU SEP 29 2016

NOTE: "FAIR" INDICATES FEW OR NO CLOUDS BELOW 12,000 FEET WITH NO
SIGNIFICANT WEATHER AND OR OBSTRUCTIONS TO VISIBILITY.


SDZ038>040-050-052>070-300000-
SOUTHEAST SOUTH DAKOTA

CITY           SKY/WX    TMP DP  RH WIND       PRES   REMARKS
CHAMBERLAIN    SUNNY     69  46  43 SE14G20   30.30F
HURON          SUNNY     68  46  45 SE9       30.33S
MADISON        FAIR      64  48  55 SE6       30.36F
MITCHELL       SUNNY     69  46  43 S12       30.34F
SIOUX FALLS    SUNNY     68  48  48 SE7       30.35F
WINNER         FAIR      72  43  35 SE17      30.28F
YANKTON        SUNNY     66  48  52 SE7       30.33S
$$

MNZ071-072-080-081-089-090-097-098-300000-
SOUTHWEST MINNESOTA

CITY           SKY/WX    TMP DP  RH WIND       PRES   REMARKS
FAIRMONT       SUNNY     67  48  50 NE6       30.38S
JACKSON        SUNNY     64  45  48 E6        30.39S
LUVERNE        SUNNY     66  45  45 SE5       30.36F
MARSHALL       SUNNY     65  49  56 E6        30.39S
MONTEVIDEO     SUNNY     66  48  52 SE9       30.40S
PIPESTONE      SUNNY     66  45  45 E5        30.37S
REDWOOD FALLS  SUNNY     66  47  50 NE7       30.39S
TRACY          SUNNY     66  51  57 E5        30.39S
WINDOM         SUNNY     66  46  48 NE6       30.39S
WORTHINGTON    SUNNY     65  49  56 E8        30.38S
$$

IAZ001>003-012>014-020>022-031-032-NEZ013-014-SDZ071-300000-
NORTHWEST IOWA

CITY           SKY/WX    TMP DP  RH WIND       PRES   REMARKS
CHEROKEE       SUNNY     67  47  48 NE6       30.36S
DENISON        SUNNY     68  46  45 NE5       30.32F
ESTHERVILLE    SUNNY     65  48  54 NE10      30.37S
LE MARS        SUNNY     70  46  43 E7        30.35F
SHELDON        SUNNY     68  48  49 E7        30.35S
SIOUX CITY     SUNNY     70  48  45 SE7       30.34F
SPENCER        SUNNY     66  48  52 E7        30.37S
STORM LAKE     SUNNY     66  46  48 E8        30.36F
$$

ABBREVIATIONS USED IN REMARKS
   TC - TEMPERATURE IN CELSIUS
  WCI - WIND CHILL INDEX
   HX - HEAT INDEX
  VSB - VISIBILITY





USA.gov is the U.S. government's official web portal to all federal, state and local government web resources and services.